[[{"header":{"parameterUnit":"m.s-1","parameterCategory":1,"la1":30.2991,"la2":30.254,"lo1":-89.0895,"lo2":-89.0444,"dy":0.0017,"dx":0.0017,"nx":28,"ny":28,"refTime":"2024-08-28T09:00:00:Z","depth":0,"parameterNumber":2,"parameterNumberName":"U-component_of_WINDS"},"data":[0,0,0,0,0,0,0,0,0,0,0,0,0,0,0,0,0,0,0,0,0,0,0,0,0,0,0,0,0,0,0,0,0,0,0,0,0,0,0,0,0,0,0,0,0,0,0,0,0,0,0,0,0,0,0,0,0,0,-3.9649,-3.9648,0,-3.9595,-3.9594,-3.9593,-3.9492,-3.949,-3.9488,-3.9487,-3.9433,-3.9433,-3.9434,0,0,0,0,0,0,0,0,0,0,0,0,0,-3.9667,-3.9667,-3.9649,-3.9648,-3.9648,-3.9595,-3.9594,-3.9593,-3.9493,-3.949,-3.9488,-3.9486,-3.9433,-3.9433,-3.9434,0,0,0,0,0,0,0,0,0,0,0,0,0,-3.9641,-3.9667,-3.9649,-3.9591,-3.9585,-3.9595,-3.9594,-3.9593,-3.9493,-3.949,-3.9487,-3.9485,-3.9433,-3.9433,-3.9434,-3.9496,0,0,-3.9436,-3.9436,0,0,0,0,0,0,0,0,-3.9642,-3.964,-3.96,-3.9595,-3.9588,-3.9547,-3.9581,-3.9561,-3.9494,-3.9528,-3.9487,-3.9483,-3.9473,-3.947,-3.9467,-3.9494,-3.9491,-3.9436,-3.9436,-3.9436,-3.9436,0,0,0,0,0,0,0,-3.9644,-3.9642,-3.9627,-3.96,-3.9593,-3.9568,-3.9561,-3.9576,-3.9518,-3.9525,-3.9517,-3.9512,-3.947,-3.9466,-3.9465,-3.9491,-3.9436,-3.9436,-3.9436,-3.9437,-3.9565,-3.9568,0,0,0,0,0,0,-3.9654,-3.9644,-3.9629,-3.9626,-3.9609,-3.957,-3.9562,-3.9563,-3.9518,-3.9508,-3.9515,-3.9508,-3.9467,-3.9464,-3.9463,-3.9531,-3.9436,-3.9437,-3.9437,-3.9562,-3.9566,-3.9569,0,0,0,0,0,0,-3.9655,-3.9654,-3.9631,-3.9633,-3.9628,-3.9573,-3.9575,-3.9564,-3.956,-3.951,-3.9499,-3.9522,-3.9464,-3.9462,-3.9488,-3.9528,-3.9437,-3.9438,-3.9558,-3.9563,-3.9567,-3.9669,0,0,0,0,0,0,-3.9656,-3.9655,-3.9677,-3.9634,-3.9628,-3.9658,-3.9578,-3.9565,-3.9562,-3.9552,-3.9514,-3.9505,-3.9462,-3.9488,-3.9489,-3.9527,-3.9438,-3.9554,-3.956,-3.9566,-3.9662,-3.9677,-3.9689,0,0,0,0,0,-3.9657,-3.9709,-3.9679,-3.9678,-3.9656,-3.966,-3.9657,-3.9606,-3.9565,-3.9588,-3.9555,-3.9506,-3.9524,-3.9491,-3.9492,-3.953,-3.9552,-3.9559,-3.9565,-3.9656,-3.9674,-3.9689,0,0,0,0,0,0,-3.9759,-3.9702,-3.9668,-3.9708,-3.969,-3.9643,-3.9669,-3.9627,-3.962,-3.9611,-3.9549,-3.9541,-3.9576,-3.9556,-3.9521,-3.9588,-3.953,-3.9537,-3.9599,-3.9616,-3.9629,-3.9632,-3.9439,0,0,0,0,0,-3.9786,-3.9794,-3.9744,-3.9784,-3.9776,-3.9725,-3.9725,-3.9688,-3.9666,-3.9658,-3.9627,-3.9609,-3.961,-3.9612,-3.9611,-3.966,-3.9649,-3.9687,-3.9701,-3.9712,-3.9718,-3.9741,-3.9757,-3.9591,-3.9591,-3.9591,0,0,-3.9842,-3.9812,-3.9821,-3.9804,-3.9785,-3.9794,-3.9719,-3.9733,-3.9739,-3.966,-3.9682,-3.966,-3.9635,-3.9673,-3.9688,-3.9658,-3.9762,-3.9721,-3.973,-3.973,-3.975,-3.9765,-3.9779,-3.9596,-3.9595,-3.9594,0,0,-3.9947,-3.9927,-3.9956,-3.9939,-3.9912,-3.9877,-3.9885,-3.9845,-3.9827,-3.9848,-3.9789,-3.9797,-3.98,-3.9785,-3.9777,-3.9879,-3.9833,-3.9881,-3.9951,-3.9974,-3.9987,-3.9998,-4.0032,-4.0045,-3.9887,-3.9888,-3.9888,0,-4.002,-4.0031,-3.9977,-3.9994,-3.9988,-3.9917,-3.9947,-3.9933,-3.9908,-3.9905,-3.9872,-3.9874,-3.9853,-3.9885,-3.991,-3.9908,-3.9913,-3.9883,-3.9989,-4.0,-4.0009,-4.0041,-4.0054,-3.9893,-3.9893,-3.9892,-3.9892,0,-4.0121,-4.013,-4.0158,-4.0133,-4.0131,-4.0155,-4.0104,-4.0108,-4.0072,-4.0042,-4.0064,-4.0037,-4.0027,-4.0033,-3.9998,-4.006,-4.0042,-4.0001,-3.994,-4.0032,-4.006,-4.0072,-3.9902,-3.99,-3.9898,-3.9897,0,0,-4.0286,-4.0233,-4.0243,-4.0231,-4.0196,-4.0202,-4.0224,-4.0214,-4.0218,-4.0204,-4.0218,-4.0224,-4.0185,-4.0177,-4.014,-4.016,-4.024,-4.0115,-4.0114,-4.0137,-4.0305,-4.0334,-4.0349,-4.0211,-4.0213,-4.0215,-4.0306,0,-4.0383,-4.0413,-4.0366,-4.0407,-4.0415,-4.0349,-4.0367,-4.0348,-4.032,-4.0323,-4.0293,-4.0297,-4.0246,-4.024,-4.0258,-4.0227,-4.0272,-4.022,-4.0223,-4.0223,-4.0227,-4.0365,-4.0396,-4.0483,-4.0317,-4.0319,-4.032,0,-4.0498,-4.0488,-4.053,-4.0492,-4.0494,-4.051,-4.0498,-4.0502,-4.0479,-4.0457,-4.0449,-4.0405,-4.0423,-4.0367,-4.039,-4.0355,-4.0354,-4.0339,-4.0341,-4.0337,-4.0275,-4.0362,-4.051,-4.0523,-4.0338,-4.0337,-4.0335,0,-4.0611,-4.0609,-4.0633,-4.0625,-4.0583,-4.0596,-4.0579,-4.0553,-4.0551,-4.054,-4.0538,-4.0531,-4.0526,-4.0521,-4.0476,-4.044,-4.0504,-4.0445,-4.0486,-4.0487,-4.0499,-4.0499,-4.0647,-4.0504,-4.0504,-4.0504,-4.0504,0,-4.0721,-4.0749,-4.0683,-4.0698,-4.0728,-4.0674,-4.0705,-4.0681,-4.0659,-4.0668,-4.0612,-4.0622,-4.0564,-4.0567,-4.0533,-4.0556,-4.0555,-4.0538,-4.0527,-4.0541,-4.0543,-4.0537,-4.0529,-4.0507,-4.0507,-4.0506,-4.0505,0,-4.0852,-4.0809,-4.0831,-4.0789,-4.0779,-4.0802,-4.0766,-4.0779,-4.0748,-4.0761,-4.0761,-4.0713,-4.0714,-4.067,-4.0663,-4.064,-4.0677,-4.0658,-4.0684,-4.0677,-4.0719,-4.0715,-4.0867,-4.0883,-4.0733,-4.0734,-4.0735,0,-4.0923,-4.0943,-4.0903,-4.0905,-4.089,-4.0895,-4.0891,-4.084,-4.0839,-4.0815,-4.083,-4.0827,-4.0821,-4.0827,-4.0792,-4.0786,-4.0764,-4.0818,-4.0762,-4.0775,-4.0761,-4.076,-4.076,-4.0828,-4.083,-4.0832,-4.0833,0,-4.1054,-4.1032,-4.1029,-4.102,-4.1018,-4.1008,-4.0994,-4.0999,-4.0943,-4.0945,-4.0945,-4.0941,-4.0934,-4.0931,-4.0918,-4.0901,-4.0857,-4.0851,-4.086,-4.0872,-4.0885,-4.0876,-4.0713,-4.0847,-4.0846,-4.0845,-4.0844,-4.0843,-4.1155,-4.1169,-4.1143,-4.1142,-4.1127,-4.1115,-4.1124,-4.1095,-4.1094,-4.1084,-4.1054,-4.1059,-4.1036,-4.1015,-4.1002,-4.1005,-4.0978,-4.0991,-4.0994,-4.0997,-4.1004,-4.0888,-4.1003,-4.1002,-4.1002,-4.1002,-4.1001,0,-4.128,-4.1261,-4.1261,-4.1243,-4.1243,-4.1203,-4.1186,-4.1188,-4.1193,-4.1175,-4.1171,-4.1171,-4.1168,-4.1134,-4.1127,-4.1136,-4.1116,-4.1135,-4.1133,-4.1129,-4.103,-4.1021,-4.1152,-4.1152,-4.1152,-4.1152,-4.1152,-4.1152,-4.1345,-4.1366,-4.1342,-4.1355,-4.1335,-4.1339,-4.1333,-4.1322,-4.1307,-4.131,-4.1307,-4.1285,-4.126,-4.125,-4.1246,-4.1236,-4.1234,-4.1261,-4.1244,-4.1151,-4.1136,-4.1122,-4.1114,-4.1262,-4.1262,-4.1342,-4.1343,-4.1343]},{"header":{"parameterUnit":"m.s-1","parameterCategory":1,"la1":30.2991,"la2":30.254,"lo1":-89.0895,"lo2":-89.0444,"dy":0.0017,"dx":0.0017,"nx":28,"ny":28,"refTime":"2024-08-28T09:00:00:Z","depth":0,"parameterNumber":3,"parameterNumberName":"V-component_of_WINDS"},"data":[0,0,0,0,0,0,0,0,0,0,0,0,0,0,0,0,0,0,0,0,0,0,0,0,0,0,0,0,0,0,0,0,0,0,0,0,0,0,0,0,0,0,0,0,0,0,0,0,0,0,0,0,0,0,0,0,0,0,2.0986,2.0988,0,2.1164,2.1166,2.1168,2.1257,2.1257,2.1257,2.1257,2.1438,2.1443,2.1448,0,0,0,0,0,0,0,0,0,0,0,0,0,2.0721,2.0725,2.0986,2.0988,2.099,2.1164,2.1166,2.1169,2.1257,2.1257,2.1257,2.1257,2.1437,2.1443,2.1448,0,0,0,0,0,0,0,0,0,0,0,0,0,2.0861,2.0726,2.0985,2.1055,2.1063,2.1163,2.1166,2.1169,2.1257,2.1257,2.1257,2.1257,2.1435,2.1442,2.1449,2.1493,0,0,2.1471,2.1474,0,0,0,0,0,0,0,0,2.0853,2.087,2.1043,2.105,2.106,2.1188,2.1139,2.1278,2.1257,2.1183,2.1257,2.1257,2.1355,2.1369,2.1402,2.1502,2.151,2.1472,2.1476,2.1479,2.1481,0,0,0,0,0,0,0,2.0843,2.0863,2.1056,2.1045,2.1055,2.1077,2.1097,2.1166,2.1267,2.119,2.1196,2.1216,2.136,2.1395,2.1407,2.1512,2.1472,2.1478,2.1483,2.1485,2.1657,2.1657,0,0,0,0,0,0,2.0822,2.0855,2.1051,2.1062,2.0954,2.1082,2.1104,2.1147,2.1266,2.1285,2.1216,2.122,2.1383,2.1399,2.1414,2.1474,2.1479,2.1486,2.149,2.1657,2.1657,2.1657,0,0,0,0,0,0,2.0816,2.0839,2.1043,2.096,2.0988,2.1086,2.1134,2.115,2.1186,2.1286,2.1305,2.1234,2.1383,2.1404,2.1473,2.1481,2.1489,2.1496,2.1656,2.1657,2.1657,2.1594,0,0,0,0,0,0,2.0808,2.0836,2.0854,2.096,2.0992,2.11,2.1134,2.1154,2.1198,2.1205,2.1308,2.1325,2.1385,2.1462,2.148,2.1492,2.1502,2.1656,2.1657,2.1657,2.1595,2.1592,2.1589,0,0,0,0,0,2.0798,2.0829,2.0855,2.0878,2.1017,2.11,2.1118,2.1187,2.1198,2.1217,2.1282,2.1322,2.1477,2.1468,2.149,2.1503,2.1656,2.1656,2.1657,2.1597,2.1592,2.1589,0,0,0,0,0,0,2.0721,2.0844,2.0874,2.094,2.1009,2.1115,2.1141,2.118,2.1247,2.125,2.1332,2.1355,2.1417,2.1467,2.1454,2.1552,2.157,2.1575,2.1517,2.1514,2.1511,2.1498,2.1508,0,0,0,0,0,2.0712,2.077,2.0874,2.0922,2.0955,2.1041,2.108,2.1127,2.1202,2.1232,2.1301,2.1372,2.1437,2.1478,2.1543,2.1603,2.1627,2.1623,2.1619,2.1616,2.1619,2.1655,2.1654,2.1659,2.1659,2.1659,0,0,2.0693,2.0768,2.0799,2.0908,2.0967,2.1025,2.1066,2.1125,2.1169,2.1241,2.1311,2.1364,2.1448,2.1513,2.1544,2.1556,2.1623,2.1616,2.1613,2.1619,2.1655,2.1654,2.1654,2.1659,2.1659,2.1659,0,0,2.069,2.0751,2.0798,2.0856,2.0945,2.1003,2.1014,2.1114,2.1152,2.1224,2.1279,2.1332,2.1442,2.15,2.1543,2.156,2.1599,2.1579,2.1562,2.1595,2.1595,2.1595,2.1601,2.1603,2.1582,2.1582,2.1582,0,2.0655,2.0745,2.0817,2.0874,2.092,2.0988,2.1036,2.1089,2.1194,2.1224,2.1236,2.1376,2.1437,2.1516,2.152,2.1553,2.1568,2.1568,2.1589,2.159,2.1591,2.1598,2.16,2.1579,2.1579,2.1579,2.158,0,2.0699,2.076,2.0787,2.0887,2.0937,2.0988,2.1068,2.1109,2.1151,2.1207,2.1279,2.1355,2.1437,2.1459,2.15,2.1544,2.1548,2.1573,2.1593,2.1586,2.1594,2.1598,2.1575,2.1576,2.1577,2.1577,0,0,2.0652,2.0792,2.08,2.0847,2.0949,2.0998,2.1052,2.1133,2.1167,2.1236,2.1285,2.1376,2.1399,2.1449,2.1498,2.1527,2.1536,2.1549,2.1552,2.1544,2.1589,2.157,2.1572,2.1562,2.1563,2.1563,2.1582,0,2.0663,2.0765,2.0831,2.0907,2.0964,2.1029,2.1076,2.1144,2.1197,2.1253,2.1312,2.1376,2.1402,2.1433,2.1464,2.1528,2.1546,2.1527,2.1608,2.161,2.1585,2.1576,2.1557,2.1571,2.1585,2.1586,2.1586,0,2.069,2.0759,2.0839,2.0936,2.0962,2.1004,2.1083,2.1136,2.1214,2.125,2.1305,2.1355,2.1415,2.1429,2.1513,2.1498,2.1535,2.1571,2.1573,2.1584,2.1598,2.1587,2.1577,2.1579,2.1592,2.1592,2.1591,0,2.0649,2.0761,2.0824,2.0862,2.0975,2.1003,2.1052,2.113,2.1174,2.1242,2.1272,2.1346,2.1387,2.1443,2.1511,2.1515,2.1588,2.1608,2.1621,2.1619,2.1634,2.1633,2.163,2.1656,2.1656,2.1656,2.1656,0,2.0655,2.0702,2.0807,2.0846,2.0901,2.0976,2.1028,2.1082,2.115,2.1201,2.1261,2.1306,2.1393,2.1449,2.1503,2.1564,2.1582,2.1614,2.1627,2.1609,2.1605,2.1635,2.1636,2.1656,2.1656,2.1656,2.1656,0,2.0619,2.0691,2.0764,2.0866,2.0892,2.0928,2.1015,2.1055,2.1111,2.1174,2.1193,2.1281,2.135,2.1423,2.1517,2.1553,2.1613,2.1632,2.1587,2.1595,2.1604,2.1602,2.1621,2.1627,2.1647,2.1647,2.1647,0,2.0618,2.0656,2.0761,2.0799,2.0846,2.0907,2.0952,2.1027,2.1072,2.1163,2.1192,2.1266,2.1329,2.1437,2.1509,2.1581,2.1603,2.1604,2.1614,2.1594,2.1604,2.1601,2.1606,2.1601,2.1601,2.16,2.16,0,2.061,2.0643,2.0706,2.0782,2.0834,2.0897,2.0962,2.099,2.1078,2.1124,2.1196,2.1245,2.1341,2.1414,2.1495,2.1545,2.1587,2.1596,2.1603,2.1585,2.1558,2.1573,2.1579,2.1596,2.1596,2.1596,2.1597,2.1597,2.0592,2.0629,2.0709,2.0777,2.0834,2.0893,2.0936,2.0997,2.1058,2.1143,2.1183,2.1254,2.1331,2.1444,2.1493,2.155,2.1563,2.1573,2.1575,2.1577,2.1572,2.1547,2.1565,2.1565,2.1566,2.1566,2.1566,0,2.0588,2.0642,2.0704,2.0793,2.0846,2.0881,2.0955,2.0997,2.106,2.1128,2.1189,2.1271,2.1342,2.1419,2.1494,2.1525,2.1546,2.1542,2.1542,2.1552,2.1557,2.1544,2.1524,2.1524,2.1524,2.1524,2.1524,2.1524,2.0591,2.0655,2.0698,2.0791,2.0845,2.0916,2.0955,2.101,2.1065,2.1155,2.1214,2.1264,2.1336,2.1417,2.1483,2.1504,2.1529,2.152,2.1546,2.1549,2.1552,2.1555,2.1543,2.1524,2.1524,2.1537,2.1538,2.1538]}]]